Regional Weather Roundup
Issued by NWS

Home | Current Version | Previous Version | Text Only | Print | Product List | Glossary On
Versions: 1 2 3 4 5 6 7 8 9 10 11 12 13 14 15 16 17 18 19 20 21 22 23 24 25 26 27 28 29 30 31 32 33 34 35 36 37 38 39 40 41 42 43 44 45 46 47 48 49 50
000
ASUS43 KBIS 260320
RWRND

NORTH DAKOTA REGIONAL WEATHER ROUNDUP
NATIONAL WEATHER SERVICE BISMARCK ND
1000 PM CDT FRI JUL 25 2014

NOTE: "FAIR" INDICATES FEW OR NO CLOUDS BELOW 12,000 FEET WITH NO
SIGNIFICANT WEATHER AND/OR OBSTRUCTIONS TO VISIBILITY.


NDZ001>003-009>011-017-260400-
NORTHWEST NORTH DAKOTA

CITY           SKY/WX    TMP DP  RH WIND       PRES   REMARKS
WILLISTON      CLEAR     68  47  46 W9        29.75R
MINOT          CLEAR     67  56  67 SE6       29.76R
MINOT AFB      CLEAR     68  60  75 S6        29.75R
$$

NDZ018>021-031>035-040>046-260400-
SOUTHWEST NORTH DAKOTA

CITY           SKY/WX    TMP DP  RH WIND       PRES   REMARKS
BISMARCK       CLEAR     65  53  65 SE7       29.80R
DICKINSON      CLEAR     63  55  75 S9        29.79R
GARRISON         N/A     65  60  84 SE3       29.77R
HETTINGER ARPT CLEAR     69  52  54 SE5       29.85R
$$

NDZ004>008-012>016-024-026-027-054-260400-
NORTHEAST NORTH DAKOTA

CITY           SKY/WX    TMP DP  RH WIND       PRES   REMARKS
GRAND FORKS    CLEAR     65  59  81 W6        29.77R
GRND FRKS AFB  CLEAR     65  60  82 W5        29.79R
DEVILS LAKE    CLEAR     66  54  63 S5        29.78R
$$

NDZ022-023-025-028>030-036>039-047>053-260400-
SOUTHEAST NORTH DAKOTA

CITY           SKY/WX    TMP DP  RH WIND       PRES   REMARKS
FARGO          CLEAR     70  58  65 W5        29.79R
JAMESTOWN      CLEAR     66  58  75 CALM      29.81R
$$



USA.gov is the U.S. government's official web portal to all federal, state and local government web resources and services.